Orbital Elements at Epoch 2459200.5 (2020-Dec-17.0) TDB
Reference: JPL 19 (heliocentric ecliptic J2000)
Element | Value | Uncertainty (1-sigma) | Units |
e | .2248929801001713 | 4.836e-08 | |
a | 2.341017115019641 | 9.1085e-09 | au |
q | 1.814538799557369 | 1.1721e-07 | au |
i | 2.014128436455039 | 4.6006e-06 | deg |
node | 181.7573142302178 | 0.00010341 | deg |
peri | 176.4823905538385 | 0.00010387 | deg |
M | 109.9414402032705 | 8.9001e-06 | deg |
tp | 2458800.956351507127 (2019-Nov-13.45635151) | 3.1459e-05 | TDB |
period | 1308.293880737752 3.58 | 7.6355e-06 2.09e-08 | d yr |
n | .2751675333045162 | 1.6059e-09 | deg/d |
Q | 2.867495430481914 | 1.1157e-08 | au |
|
| | Orbit Determination Parameters
Additional Information
|